www.pogodaiklimat.ru

Погода и климат >> Архив погоды >> Кот-д'Ивуар >> Sassandra


ПОГОДА в Sassandra

  • Прогноз погоды в Sassandra
  • Монитор погоды в Sassandra
  • Климат города

АРХИВ ПОГОДЫ в Sassandra

Время (UTC), дата Ветер
(напр.,м/с)
 
Видим.   Явления Облачность Т
(С)
Тd
(С)
f
(%)
Тe
(С)
Тes
(С)
Комфортность P
(гПа)
Po
(гПа)
Тmin
(С)
Tmax
(С)
R
(мм)
R24
(мм)
S
(см)
12 15.10 Ю 1 10 км 4/4 450 м
[Cb cap]
+28.5 +25.0 81 +41 +56 опасность
перегрева
1014.2 1006.8
15 15.10 Ю 2 10 км в посл. час гроза 3/3 450 м
[Cb cap]
+29.0 +25.2 80 +42 +51 опасность
перегрева
1011.4 1004.1
18 15.10 Ю 1 10 км {гроза} 8/5 450 м
[Cb cap Ci ing]
+27.0 +24.4 86 +38 +38 очень
душно
1011.4 1004.0 +29.7
21 15.10 З 1 10 км 6/5 450 м
[Cu med, cong Ci sp]
+26.3 +24.4 89 +37 +37 очень
душно
1014.0 1006.6
00 16.10 З 1 10 км 3/3 400 м
[Cu med, cong]
+25.8 +24.7 94 +37 +37 очень
душно
1013.3 1005.9
06 16.10 СЗ 1 10 км 8/8 400 м
[Sc]
+24.7 +24.1 96 +34 +34 очень
душно
1013.2 1005.8 +24.5
12 16.10 Ю 1 10 км гроза без осадков 6/4 450 м
[Cb cap Ac trans]
+29.0 +25.4 81 +43 +55 опасность
перегрева
1014.5 1007.2
18 16.10 СЗ 1 10 км гроза без осадков {дождь} 9/6 400 м
[Cb cap Ac und]
+23.8 +22.6 93 +31 +31 очень
душно
1012.5 1005.0 +29.8 13
21 16.10 С 1 10 км зарница {гроза} 4/4 400 м
[Cb cap]
+22.5 +22.1 98 +30 +30 очень
душно
1015.2 1007.7
06 17.10 З 1 10 км гроза без осадков {дождь} 9/9 400 м
[Cb cap]
+22.2 +21.9 98 +29 +29 очень
душно
1012.4 1004.9 +22.0 13
09 17.10 СЗ 2 10 км в посл. час гроза 9/5 400 м
[Cb cap Ac As]
+23.9 +22.1 90 +31 +33 очень
душно
1014.8 1007.3
12 17.10 СВ 1 10 км гроза без осадков 9/4 450 м
[Cb cap Ac trans]
+26.7 +23.2 81 +36 +43 очень
душно
1013.1 1005.7
15 17.10 Ю 1 10 км гроза без осадков 8/4 450 м
[Cb cap Ci sp]
+28.5 +23.8 76 +39 +47 очень
душно
1011.0 1003.7
18 17.10 С 1 10 км {гроза} 6/3 450 м
[Cb cap Ci ing]
+26.5 +23.6 84 +36 +36 очень
душно
1011.3 1003.9 +29.2
21 17.10 СВ 1 10 км зарница 3/1 400 м
[Cb cap Ac trans]
+25.3 +24.0 93 +35 +35 очень
душно
1013.4 1006.0
00 18.10 ЮЗ 1 10 км 6/6 400 м
[Sc]
+25.2 +24.4 95 +35 +35 очень
душно
1012.4 1005.0
03 18.10 ЮЗ 1 10 км 9/9 400 м
[Sc]
+25.6 +24.3 93 +36 +36 очень
душно
1011.1 1003.7
09 18.10 Ю 2 10 км 9/9 400 м
[Cu med, cong]
+26.5 +24.4 88 +37 +38 очень
душно
1013.3 1005.9
12 18.10 Ю 1 10 км 6/6 600 м
[Cb cap]
+25.4 +21 +31 комфорт 1012.3 1005.0
15 18.10 ЮЗ 2 10 км гроза без осадков 8/8 450 м
[]
+28.7 +24.9 80 +41 +44 опасность
перегрева
1009.5 1002.2
18 18.10 Ю 1 10 км гроза без осадков 9/9 450 м
[Cb cap]
+26.7 +24.3 87 +37 +37 очень
душно
1010.0 1002.6 +30.0
21 18.10 ЮЗ 1 10 км {гроза} 3/3 400 м
[Cb cap]
+25.5 +24.1 92 +35 +35 очень
душно
1012.0 1004.6
03 19.10 З 1 10 км 5/5 400 м
[Sc]
+25.0 +24.1 95 +34 +34 очень
душно
1009.5 1002.5
06 19.10 ЮЗ 1 10 км в посл. час дождь 9/9 400 м
[Cu med, cong]
+24.5 +23.8 96 +33 +33 очень
душно
1010.9 1003.5 +21.5 2
09 19.10 СЗ 1 10 км 8/8 450 м
[Cu med, cong]
+26.3 +25.5 95 +38 +40 очень
душно
1012.2 1008.8
12 19.10 Ю 1 10 км 5/5 450 м
[Cu med, cong]
+29.4 +25.3 79 +43 +56 опасность
перегрева
1011.2 1003.9
15 19.10 Ю 2 10 км гроза без осадков 4/4 450 м
[Cb cap]
+29.0 +23.2 71 +39 +46 очень
душно
1008.4 1001.1
18 19.10 ЮЗ 1 10 км гроза без осадков 9/3 450 м
[Cb cap Ac trans]
+27.0 +24.1 84 +37 +38 очень
душно
1008.8 1001.4 +30.3
00 20.10 З 1 10 км {гроза} 4/1 400 м
[Sc Ac trans]
+25.5 +24.1 92 +35 +35 очень
душно
1010.8 1003.4
03 20.10 З 1 10 км 3/3 400 м
[Sc]
+24.5 +23.8 96 +33 +33 очень
душно
1009.4 1002.0
06 20.10 СЗ 1 10 км 4/4 400 м
[Sc]
+23.5 +22.8 96 +31 +31 очень
душно
1010.0 1002.5 +23.0
09 20.10 СВ 1 10 км 8/8 400 м
[Cu med, cong]
+27.0 +25.2 90 +39 +41 очень
душно
1012.2 1004.8
12 20.10 Ю 1 10 км 4/4 450 м
[Cu med, cong]
+29.5 +24.8 76 +42 +56 опасность
перегрева
1011.0 1003.7
18 20.10 Ю 2 10 км 6/3 450 м
[Cb cap Ci ing]
+27.2 +24.2 84 +38 +38 очень
душно
1009.0 1001.6 +30.2
21 20.10 10 км н/о +26.5 +24.4 88 +37 +37 очень
душно
1010.8 1003.4
00 21.10 СЗ 1 10 км 3/3 400 м
[Sc]
+26.0 +24.1 89 +36 +36 очень
душно
1011.0 1003.6
03 21.10 СЗ 1 10 км 5/5 400 м
[Sc]
+23.5 +22.5 94 +31 +31 очень
душно
1008.9 1001.4
06 21.10 СЗ 1 10 км 5/5 400 м
[Sc]
+23.8 +23.4 98 +32 +32 очень
душно
1010.1 1002.6 +23.6

 

Местоположение метеостанции Sassandra (Кот-д'Ивуар): широта 4.95 долгота -6.08 высота над уровнем моря 66 м.

В архиве по умолчанию представлена погода в Sassandra за последнюю неделю. Архивные данные за месяц целиком и за предыдущие месяцы, начиная с января 2011 года, Вы можете получить, выбрав интересующий диапазон дат из раскрывающегося списка и нажав кнопку "Ввод!".


*Определитесь, кто Вы:
робот инопланетянин человек

Внимание! Время в таблицах - всемирное. Для получения местного времени необходимо прибавить поправку, которая в Sassandra равна 0 ч.

Смотрите также архив погоды в соседних городах и на ближайших метеорологических станциях:

Погода в San Pedro (Кот-д'Ивуар) (67 км)
Погода в Gagnoa (Кот-д'Ивуар) (132 км)
Погода в Tabou (Кот-д'Ивуар) (155 км)
Погода в Daloa (Кот-д'Ивуар) (218 км)
Погода в Yamoussoukro (Кот-д'Ивуар) (231 км)
Погода в Abidjan (Кот-д'Ивуар) (241 км)
Погода в Dimbokro (Кот-д'Ивуар) (243 км)
Погода в Adiake (Кот-д'Ивуар) (310 км)
Погода в Man (Кот-д'Ивуар) (314 км)
Погода в Bouake (Кот-д'Ивуар) (329 км)

Пояснения к столбцам:

Ветер - указаны скорость ветра в м/с - средняя за 10 мин, порывы в срок и между сроками (в фигурных скобках) и направление, откуда дует ветер: С - северный, СВ - северо-восточный, В - восточный, ЮВ - юго-восточный, Ю - южный, ЮЗ - юго-западный, З - западный, СЗ - северо-западный.
Видимость - горизонтальная дальность видимости в метрах или километрах. При видимости от 1 до 10 км при отсутствии осадков обычно наблюдается дымка, при ухудшении видимости до 1 км и менее - туман. В сухую погоду видимость может ухудшаться дымом, пылью или мглою.
Явления - указаны атмосферные явления, наблюдавшиеся в срок или в последний час перед сроком; фигурными скобками обозначены явления, наблюдавшиеся между сроками (за 1-3 часа до срока); квадратными скобками обозначены град или гололедные отложения с указанием их диаметра в мм.
Облачность - указаны через наклонную черту общая и нижняя облачность в баллах и высота нижней границы облаков в метрах; квадратными скобками обозначены формы облаков: Ci - перистые, Cs - перисто-слоистые, Cc - перисто-кучевые, Ac - высококучевые, As - высокослоистые, Sc - слоисто-кучевые, Ns - слоисто-дождевые, Cu - кучевые, Cb - кучево-дождевые. Подробнее классификацию облаков см. в Атласе облаков (PDF).
T - Температура воздуха - температура, измеренная на высоте 2 м над землей.
Td - Температура точки росы - температура, при понижении до которой содержащийся в воздухе водяной пар достигнет насыщения.
f - Относительная влажность воздуха - влажноcть воздуха, измеренная на высоте 2 м над землей.
Te - Эффективная температура - температура, которую ощущает одетый по сезону человек в тени. Характеристика душности погоды. При расчете учитывается влияние влажности воздуха и скорости ветра на теплоощущения человека.
Tes - Эффективная температура на солнце - температура, которую ощущает человек, с поправкой на солнечный нагрев. Характеристика знойности погоды. Зависит от высоты солнца над горизонтом, облачности и скорости ветра. Ночью, в пасмурную погоду, а также при ветре 12 м/с и более поправка равна нулю.
P - Атмосферное давление - приведенное к уровню моря атмосферное давление.
Po - Атмосферное давление - измеренное на уровне метеостанции атмосферное давление.
Tmin - Минимальная температура - минимум температуры воздуха на высоте 2 м над землей.
Tmax - Максимальная температура - максимум температуры воздуха на высоте 2 м над землей.
R - Количество осадков - Количество выпавших осадков за период времени, мм. При наведении курсора мыши на число - период времени, за который выпало указанное количество осадков.
R24 - Количество осадков - Количество выпавших осадков за 24 часа, мм.
S - Снежный покров - Высота снежного покрова, см. При наведении курсора мыши на число - состояние снежного покрова и степень покрытия местности в баллах.